Flag for Spain Weather past 2 weeks in Sevilla, Spain

Now
72 °F

Clear.


Feels Like: 72 °F
Forecast: 66 / 87 °F
Wind: 2 mph from Northeast

Location: Sevilla / San Pablo

Current Time: Oct 2, 2014 at 3:09:57 AM

Latest Report: Oct 2, 2014 at 1:00 AM


Visibility: 10 mi

Pressure: 30.09 "Hg

Humidity: 78%

Dew point: 64 °F

Location of SevillaLocation

Historic Weather in Sevilla — Graph

°F

Sevilla temperature yesterday

Maximum temperature yesterday: 84 °F (at 3:30 PM)
Minimum temperature yesterday: 68 °F (at 7:30 AM)
Average temperature yesterday: 77 °F

Past Weeks' High & Low Weather Summary

 TemperatureHumidityPressure
High84 °F (Sep 26, 4:30 PM)100% (Sep 17, 4:30 AM)30.18 "Hg (Sep 17, 4:30 AM)
Low63 °F (Sep 25, 6:00 AM)32% (Sep 26, 3:30 PM)29.77 "Hg (Sep 17, 3:30 AM)
Average72 °F74%30.01 "Hg
* Reported Sep 17 1:00 AM — Oct 2 1:00 AM, Sevilla, Weather by CustomWeather, © 2014

Note: Actual official high and low records may vary slightly from our data, if they occured in-between our weather recording intervals... More about our weather records

Advertising

Sevilla weather history for previous 24 hours

 ConditionsComfort  
Time TempWeatherWind HumidityBarometerVisibility
1:00 AM
Oct 2
72 °FClear.2 mph78%30.09 "Hg10 mi
12:30 AM72 °FClear.2 mph78%30.09 "Hg10 mi
12:00 AM72 °FClear.2 mph73%30.09 "Hg10 mi
11:30 PM
Oct 1
73 °FClear.2 mph65%30.09 "Hg10 mi
11:00 PM75 °FClear.3 mph61%30.09 "Hg10 mi
10:30 PM75 °FClear.3 mph61%30.09 "Hg10 mi
10:00 PM77 °FClear.6 mph57%30.07 "Hg10 mi
9:30 PM77 °FClear.3 mph57%30.07 "Hg10 mi
9:00 PM77 °FSunny.6 mph57%30.07 "Hg10 mi
8:30 PM79 °FSunny.5 mph51%30.07 "Hg10 mi
8:00 PM81 °FSunny.5 mph48%30.07 "Hg10 mi
7:30 PM82 °FSunny.7 mph45%30.07 "Hg10 mi
7:00 PM82 °FPassing clouds.10 mph42%30.07 "HgN/A
6:30 PM84 °FPassing clouds.14 mph37%30.07 "HgN/A
6:00 PM84 °FPassing clouds.15 mph37%30.07 "HgN/A
5:30 PM84 °FPassing clouds.15 mph40%30.07 "HgN/A
5:00 PM84 °FPassing clouds.13 mph40%30.07 "HgN/A
4:30 PM84 °FSunny.16 mph40%30.07 "Hg10 mi
4:00 PM84 °FPassing clouds.15 mph43%30.07 "HgN/A
3:30 PM84 °FPassing clouds.15 mph43%30.07 "HgN/A
3:00 PM82 °FSunny.15 mph48%30.07 "Hg10 mi
2:30 PM81 °FSunny.15 mph51%30.09 "Hg10 mi
2:00 PM81 °FPassing clouds.14 mph51%30.09 "HgN/A
1:30 PM81 °FPassing clouds.14 mph48%30.09 "HgN/A
1:00 PM81 °FPassing clouds.14 mph48%30.09 "HgN/A
12:30 PM81 °FSunny.15 mph51%30.12 "Hg10 mi
12:00 PM79 °FSunny.15 mph54%30.12 "Hg10 mi
11:30 AM79 °FSunny.15 mph54%30.12 "Hg10 mi
11:00 AM77 °FSunny.14 mph61%30.09 "Hg10 mi
10:30 AM75 °FPassing clouds.8 mph65%30.09 "HgN/A
10:00 AM72 °FSunny.9 mph73%30.09 "Hg10 mi
9:30 AM70 °FSunny.8 mph78%30.09 "Hg10 mi
9:00 AM72 °FPassing clouds.8 mph73%30.09 "HgN/A
8:30 AM73 °FClear.8 mph69%30.07 "Hg10 mi
8:00 AM70 °FClear.6 mph78%30.07 "Hg10 mi
7:30 AM68 °FClear.6 mph83%30.07 "Hg10 mi
7:00 AM72 °FPassing clouds.5 mph69%30.07 "HgN/A
6:30 AM72 °FClear.9 mph69%30.07 "Hg10 mi
6:00 AM72 °FClear.9 mph69%30.07 "Hg10 mi
5:30 AM72 °FClear.7 mph69%30.07 "Hg10 mi
5:00 AM72 °FClear.8 mph73%30.07 "Hg10 mi
4:30 AM70 °FClear.8 mph73%30.07 "Hg10 mi
4:00 AM70 °FClear.8 mph78%30.07 "Hg10 mi
Weather by CustomWeather, © 2014

See weather overviewHow to use our weather pages